Baltimore, MD

3:49 PM EST on February 13, 2016 (GMT -0500)
Baltimore-Washington International

Weather History for KBWI - November, 2014

Change the Weather History Date:

Wednesday, November 5, 2014

  Actual Average Record
Temperature  
Mean Temperature 60 °F 50 °F  
Max Temperature 68 °F 61 °F 83 °F (1961)
Min Temperature 52 °F 39 °F 24 °F (1998)
Degree Days  
Heating Degree Days 5 15  
Month to date heating degree days 67 73  
Since 1 July heating degree days 319 420  
Cooling Degree Days 0 0  
Month to date cooling degree days 0 0  
Year to date cooling degree days 1084 1163  
Growing Degree Days 9 (Base 50)    
Moisture  
Dew Point 42 °F    
Average Humidity 68    
Maximum Humidity 100    
Minimum Humidity 36    
Precipitation  
Precipitation 0.06 in 0.11 in 1.41 in (1986)
Month to date precipitation 0.17 0.57  
Year to date precipitation 45.81 35.78  
Snow  
Snow 0.00 in 0.00 in 0.30 in (1962)
Month to date snowfall 0.0 0.0  
Since 1 July snowfall 0.0 0.0  
Snow Depth 0.00 in    
Sea Level Pressure  
Sea Level Pressure 30.14 in    
Wind  
Wind Speed 4 mph (West)    
Max Wind Speed 13 mph    
Max Gust Speed 18 mph    
Visibility 10 miles    
Events Rain    
T = Trace of Precipitation, MM = Missing Value Source: NWS Daily Summary

Daily Weather History Graph

Daily Weather History Graph

Search for Another Location

Airport or City:

Trip Planner

Search our weather history database for the weather conditions in past years. The results will help you decide how hot, cold, wet, or windy it might be!

Date:

Astronomy

Nov. 05, 2014 Rise Set
Actual Time 6:38 AM EST 5:01 PM EST
Civil Twilight 6:10 AM EST 5:29 PM EST
Nautical Twilight 5:38 AM EST 6:01 PM EST
Astronomical Twilight 5:07 AM EST 6:32 PM EST
Moon 4:25 PM EST (11/5) 5:02 AM EST (11/5)
Length of Visible Light 11h 18m
Length of Day
10h 22m
Waxing Gibbous, 98% of the Moon is Illuminated
Nov 5
Waxing Gibbous
Nov 6
Full
Nov 14
Last Quarter
Nov 22
New
Nov 29
First Quarter

Hourly Weather History & Observations

Time (EST) Temp. Dew Point Humidity Pressure Visibility Wind Dir Wind Speed Gust Speed Precip Events Conditions
12:54 AM 60.1 °F 33.1 °F 36% 30.06 in 10.0 mi SW 8.1 mph - N/A   Scattered Clouds
1:54 AM 59.0 °F 34.0 °F 39% 30.07 in 10.0 mi WSW 5.8 mph - N/A   Mostly Cloudy
2:54 AM 55.9 °F 35.1 °F 45% 30.07 in 10.0 mi SW 3.5 mph - N/A   Mostly Cloudy
3:54 AM 54.0 °F 36.0 °F 51% 30.09 in 10.0 mi West 4.6 mph - N/A   Mostly Cloudy
4:54 AM 53.1 °F 36.0 °F 52% 30.10 in 10.0 mi Calm Calm - N/A   Mostly Cloudy
5:54 AM 53.1 °F 36.0 °F 52% 30.13 in 10.0 mi SW 4.6 mph - N/A   Mostly Cloudy
6:54 AM 53.1 °F 36.0 °F 52% 30.14 in 10.0 mi SSW 3.5 mph - N/A   Overcast
7:54 AM 55.0 °F 37.0 °F 51% 30.14 in 10.0 mi SW 4.6 mph - N/A   Overcast
8:54 AM 55.9 °F 39.0 °F 53% 30.17 in 10.0 mi SW 3.5 mph - N/A   Overcast
9:54 AM 60.1 °F 39.0 °F 46% 30.18 in 10.0 mi West 3.5 mph - N/A   Overcast
10:54 AM 64.0 °F 39.9 °F 41% 30.17 in 10.0 mi WSW 4.6 mph - N/A   Overcast
11:54 AM 66.9 °F 41.0 °F 39% 30.17 in 10.0 mi WNW 6.9 mph - N/A   Overcast
12:54 PM 66.9 °F 44.1 °F 44% 30.15 in 10.0 mi West 6.9 mph - N/A   Overcast
1:54 PM 66.0 °F 45.0 °F 47% 30.13 in 10.0 mi West 6.9 mph - N/A   Overcast
2:54 PM 66.0 °F 45.0 °F 47% 30.14 in 10.0 mi WNW 6.9 mph - N/A   Overcast
3:54 PM 63.0 °F 46.9 °F 56% 30.14 in 10.0 mi WNW 5.8 mph - N/A   Overcast
4:54 PM 61.0 °F 46.9 °F 60% 30.14 in 10.0 mi WNW 4.6 mph - 0.00 in   Overcast
5:54 PM 62.1 °F 46.9 °F 58% 30.15 in 10.0 mi WNW 3.5 mph - N/A   Overcast
6:54 PM 57.9 °F 48.0 °F 70% 30.16 in 10.0 mi Calm Calm - N/A   Overcast
7:54 PM 57.0 °F 48.0 °F 72% 30.16 in 10.0 mi Calm Calm - N/A   Overcast
8:54 PM 57.0 °F 48.9 °F 74% 30.16 in 10.0 mi Calm Calm - 0.00 in Rain Light Rain
9:54 PM 55.0 °F 52.0 °F 89% 30.17 in 9.0 mi Calm Calm - 0.00 in Rain Light Rain
10:54 PM 54.0 °F 53.1 °F 97% 30.16 in 8.0 mi Calm Calm - 0.03 in Rain Light Rain
11:54 PM 55.0 °F 53.1 °F 93% 30.14 in 7.0 mi NNE 3.5 mph - 0.02 in Rain Light Rain